GORIZONT 26 [-]

Last updated on Aug. 13, 2020, 5:30 a.m. UTC

1 22041U 92043A   20225.76168502 -.00000209  00000-0  00000-0 0  9995
2 22041  14.9619   1.1720 0028947 218.9504 127.5065  0.99242550102286
UTC
Height (km)
Latitude
Longitude
Inclination
Orbital Period
UTC large
Height (km)
Speed (km/s)
/
Latitude / Longitude
Inclination (degrees)
Orbital Period (minutes)
Azimuth
Elevation
Range (km)
Doppler Factor
iOS Compass Heading
iOS Angle

Next 30 passes for location: Hong Kong

Rise time Rise Azimuth (degrees) Set time Set Azimuth (degrees) Duration Max altitude (degrees)

No matching passes for this satellites